TimeAST,TemperatureF,Dew PointF,Humidity,Sea Level PressureIn,VisibilityMPH,Wind Direction,Wind SpeedMPH,Gust SpeedMPH,PrecipitationIn,Events,Conditions,WindDirDegrees,DateUTC
12:43 AM,80.6,77.0,89,29.71,10.0,NNW,10.4,-,N/A,,Scattered Clouds,340,2012-10-14 04:43:00
12:53 AM,81.0,77.0,88,29.71,10.0,NNW,9.2,-,N/A,,Scattered Clouds,340,2012-10-14 04:53:00
1:53 AM,81.0,77.0,88,29.70,10.0,NNW,8.1,-,0.00,Rain,Light Rain,340,2012-10-14 05:53:00
2:53 AM,80.1,78.1,94,29.68,8.0,NNW,10.4,-,0.01,Rain,Light Rain,340,2012-10-14 06:53:00
3:53 AM,81.0,77.0,88,29.66,10.0,NNW,9.2,-,0.00,,Scattered Clouds,340,2012-10-14 07:53:00
4:44 AM,82.4,77.0,84,29.67,10.0,NNW,12.7,-,N/A,,Mostly Cloudy,330,2012-10-14 08:44:00
4:53 AM,81.0,77.0,88,29.68,10.0,North,10.4,-,N/A,,Scattered Clouds,350,2012-10-14 08:53:00
5:02 AM,80.6,77.0,89,29.67,10.0,NNW,10.4,-,0.00,Rain,Light Rain,330,2012-10-14 09:02:00
5:13 AM,82.4,77.0,84,29.67,10.0,NNW,12.7,-,0.00,,Mostly Cloudy,330,2012-10-14 09:13:00
5:53 AM,81.0,77.0,88,29.68,10.0,NW,9.2,-,0.00,,Scattered Clouds,320,2012-10-14 09:53:00
6:53 AM,80.1,75.9,87,29.70,10.0,NNW,8.1,-,0.00,,Scattered Clouds,330,2012-10-14 10:53:00
7:53 AM,82.9,78.1,85,29.72,10.0,NW,10.4,-,N/A,,Scattered Clouds,310,2012-10-14 11:53:00
8:08 AM,82.4,78.8,89,29.72,5.0,WNW,10.4,-,0.01,Rain,Light Rain,300,2012-10-14 12:08:00
8:22 AM,82.4,77.0,84,29.72,10.0,WNW,11.5,-,0.01,,Mostly Cloudy,300,2012-10-14 12:22:00
8:53 AM,84.0,78.1,82,29.73,10.0,WNW,11.5,-,0.01,,Clear,290,2012-10-14 12:53:00
9:53 AM,82.9,77.0,82,29.74,10.0,WNW,12.7,-,N/A,,Mostly Cloudy,290,2012-10-14 13:53:00
10:13 AM,87.8,78.8,75,29.74,10.0,WNW,13.8,-,0.00,Rain,Light Rain,290,2012-10-14 14:13:00
10:21 AM,84.2,78.8,84,29.74,10.0,WNW,10.4,-,0.00,Rain,Light Rain,300,2012-10-14 14:21:00
10:39 AM,82.4,78.8,89,29.73,10.0,West,19.6,-,0.00,Rain,Light Rain,270,2012-10-14 14:39:00
10:53 AM,82.0,79.0,90,29.74,7.0,West,16.1,21.9,0.03,Rain,Light Rain,270,2012-10-14 14:53:00
11:00 AM,80.6,78.8,94,29.74,2.5,West,16.1,-,0.03,Rain,Rain,260,2012-10-14 15:00:00
11:14 AM,80.6,78.8,94,29.74,10.0,West,9.2,-,0.04,Rain,Light Rain,260,2012-10-14 15:14:00
11:53 AM,84.0,79.0,85,29.72,10.0,West,15.0,-,0.04,,Partly Cloudy,280,2012-10-14 15:53:00
12:53 PM,86.0,78.1,77,29.70,10.0,West,13.8,-,N/A,,Mostly Cloudy,270,2012-10-14 16:53:00
1:53 PM,86.0,78.1,77,29.68,10.0,West,16.1,-,N/A,,Overcast,280,2012-10-14 17:53:00
2:11 PM,84.2,78.8,84,29.66,10.0,WSW,19.6,-,N/A,,Overcast,250,2012-10-14 18:11:00
2:41 PM,84.2,78.8,84,29.66,10.0,WSW,18.4,-,N/A,,Overcast,250,2012-10-14 18:41:00
2:53 PM,84.9,77.0,77,29.66,10.0,West,17.3,-,N/A,,Overcast,260,2012-10-14 18:53:00
3:20 PM,86.0,78.8,79,29.66,10.0,West,15.0,-,N/A,,Overcast,260,2012-10-14 19:20:00
3:53 PM,84.9,78.1,80,29.67,10.0,WSW,15.0,-,N/A,,Overcast,250,2012-10-14 19:53:00
4:03 PM,84.2,78.8,84,29.67,10.0,WSW,13.8,-,N/A,,Overcast,250,2012-10-14 20:03:00
4:53 PM,82.9,78.1,85,29.67,10.0,NW,10.4,-,0.00,Rain,Light Rain,310,2012-10-14 20:53:00
5:02 PM,82.4,78.8,89,29.67,10.0,WNW,8.1,-,0.00,Rain,Light Rain,300,2012-10-14 21:02:00
5:24 PM,80.6,78.8,94,29.68,3.0,NW,10.4,-,0.04,Rain,Light Rain,320,2012-10-14 21:24:00
5:53 PM,80.1,78.1,94,29.69,10.0,NW,11.5,-,0.08,Rain,Light Rain,310,2012-10-14 21:53:00
6:53 PM,81.0,77.0,88,29.68,10.0,NW,9.2,-,0.00,,Scattered Clouds,310,2012-10-14 22:53:00
7:17 PM,82.4,78.8,89,29.69,10.0,WNW,6.9,18.4,N/A,,Mostly Cloudy,300,2012-10-14 23:17:00
7:53 PM,82.0,78.1,88,29.70,10.0,WNW,11.5,-,N/A,,Mostly Cloudy,290,2012-10-14 23:53:00
8:53 PM,82.0,78.1,88,29.72,10.0,WNW,10.4,-,N/A,,Partly Cloudy,290,2012-10-15 00:53:00
9:49 PM,82.4,78.8,89,29.73,10.0,West,10.4,-,N/A,,Mostly Cloudy,280,2012-10-15 01:49:00
9:53 PM,82.0,79.0,90,29.73,10.0,West,9.2,-,N/A,,Scattered Clouds,270,2012-10-15 01:53:00
10:53 PM,82.0,79.0,90,29.73,10.0,NW,6.9,-,N/A,,Scattered Clouds,320,2012-10-15 02:53:00
11:53 PM,82.0,77.0,85,29.73,10.0,West,10.4,-,N/A,,Scattered Clouds,280,2012-10-15 03:53:00